[[{"header":{"parameterUnit":"m.s-1","parameterCategory":2,"la1":30.2991,"la2":30.254,"lo1":-89.0895,"lo2":-89.0444,"dy":0.0017,"dx":0.0017,"nx":28,"ny":28,"refTime":"2023-08-15T21:00:00:Z","depth":"0","parameterNumber":2,"parameterNumberName":"U-component_of_CURRENTS"},"data":[0,0,0,0,0,0,0,0,0,0,0,0,0,0,0,0,0,0,0,0,0,0,0,0,0,0,0,0,0,0,0,0,0,0,0,0,0,0,0,0,0,0,0,0,0,0,0,0,0,0,0,0,0,0,0,0,0,0,0.3541,0.354,0,0.3554,0.3555,0.3556,0.3554,0.3553,0.3552,0.3551,0.3847,0.3856,0.3864,0,0,0,0,0,0,0,0,0,0,0,0,0,0.3657,0.3655,0.3541,0.354,0.354,0.3554,0.3555,0.3556,0.3554,0.3553,0.3551,0.355,0.3844,0.3854,0.3865,0,0,0,0,0,0,0,0,0,0,0,0,0,0.3641,0.3654,0.3541,0.3534,0.3532,0.3554,0.3555,0.3556,0.3554,0.3553,0.3551,0.355,0.3841,0.3853,0.3867,0.3981,0,0,0.3907,0.3913,0,0,0,0,0,0,0,0,0.3641,0.3638,0.3535,0.3534,0.3533,0.3542,0.3704,0.3709,0.3555,0.3556,0.3551,0.3549,0.3767,0.3786,0.3801,0.3995,0.4007,0.3908,0.3917,0.3922,0.3926,0,0,0,0,0,0,0,0.3642,0.3638,0.3556,0.3535,0.3533,0.3578,0.3573,0.3705,0.3683,0.3556,0.3553,0.354,0.3769,0.3788,0.3809,0.4012,0.3908,0.392,0.3928,0.3933,0.4322,0.4324,0,0,0,0,0,0,0.3616,0.3638,0.3555,0.3555,0.3574,0.3576,0.3571,0.3549,0.3675,0.3687,0.3542,0.354,0.3766,0.3793,0.3819,0.4054,0.3922,0.3935,0.3942,0.432,0.4323,0.4325,0,0,0,0,0,0,0.3618,0.3608,0.3554,0.359,0.3585,0.3573,0.3549,0.3549,0.3563,0.3659,0.3679,0.3552,0.3766,0.3801,0.3976,0.4062,0.3941,0.3953,0.4317,0.4321,0.4324,0.4467,0,0,0,0,0,0,0.3622,0.3609,0.3621,0.3588,0.3582,0.3602,0.355,0.3551,0.3553,0.3551,0.3677,0.3701,0.3767,0.3956,0.3989,0.4079,0.3963,0.4314,0.4319,0.4323,0.4459,0.4475,0.4488,0,0,0,0,0,0.3626,0.3672,0.3622,0.3613,0.3586,0.3604,0.3609,0.3601,0.3555,0.3599,0.3683,0.3697,0.4004,0.3971,0.4009,0.4104,0.4312,0.4317,0.4323,0.4453,0.4472,0.4488,0,0,0,0,0,0,0.3776,0.3673,0.3618,0.364,0.3622,0.36,0.3646,0.3603,0.3693,0.3706,0.3768,0.3805,0.3989,0.4014,0.3973,0.4216,0.4145,0.4158,0.4231,0.425,0.4264,0.4347,0.3974,0,0,0,0,0,0.3793,0.3783,0.37,0.3733,0.3711,0.3665,0.3675,0.3658,0.3704,0.3735,0.3813,0.3906,0.404,0.4115,0.4235,0.439,0.4424,0.4455,0.447,0.4482,0.457,0.4681,0.4715,0.4343,0.4343,0.4342,0,0,0.387,0.3809,0.3811,0.3761,0.3741,0.3792,0.3673,0.37,0.3787,0.3768,0.3943,0.3987,0.4093,0.4274,0.4352,0.4309,0.459,0.4489,0.45,0.4583,0.469,0.4727,0.476,0.4346,0.4345,0.4345,0,0,0.4021,0.3943,0.3977,0.396,0.3915,0.3906,0.3903,0.3878,0.3908,0.4048,0.406,0.4175,0.4337,0.4452,0.4525,0.4694,0.4673,0.4663,0.4819,0.4923,0.4957,0.4987,0.5016,0.5048,0.466,0.466,0.466,0,0.4133,0.4118,0.4011,0.4045,0.4058,0.3958,0.4032,0.4079,0.4131,0.4185,0.4135,0.4369,0.4458,0.469,0.4748,0.4746,0.4746,0.4748,0.4948,0.4979,0.5008,0.5031,0.5065,0.4667,0.4667,0.4666,0.4665,0,0.4265,0.4283,0.4314,0.4309,0.4337,0.4379,0.438,0.4438,0.443,0.4457,0.4628,0.4714,0.4838,0.4859,0.4888,0.5107,0.5019,0.4962,0.4914,0.5055,0.5068,0.5101,0.4678,0.4675,0.4673,0.4671,0,0,0.4421,0.441,0.4417,0.4431,0.4455,0.4477,0.4649,0.4737,0.4792,0.4881,0.4973,0.5217,0.516,0.5241,0.5227,0.5333,0.5522,0.5237,0.5239,0.5286,0.5688,0.5468,0.548,0.5468,0.5476,0.5482,0.5594,0,0.455,0.4642,0.4624,0.4763,0.4792,0.4784,0.4921,0.5006,0.5042,0.5114,0.5209,0.5301,0.5328,0.5319,0.5468,0.5482,0.5622,0.5495,0.5532,0.5535,0.534,0.5519,0.5246,0.5311,0.5626,0.5631,0.5635,0,0.464,0.468,0.4813,0.4883,0.4894,0.4989,0.5089,0.5198,0.5312,0.5326,0.5448,0.5444,0.5652,0.5581,0.5838,0.5726,0.5785,0.58,0.5802,0.5598,0.538,0.5232,0.5357,0.5168,0.5684,0.568,0.5677,0,0.4686,0.48,0.4897,0.4922,0.5016,0.5086,0.5148,0.5257,0.531,0.5424,0.5419,0.5636,0.5666,0.5839,0.5904,0.5869,0.6095,0.6028,0.592,0.5899,0.5689,0.5636,0.567,0.6294,0.6294,0.6293,0.6293,0,0.4771,0.4839,0.4903,0.4942,0.5043,0.5095,0.5179,0.5269,0.5338,0.5377,0.5497,0.5535,0.5732,0.5838,0.5946,0.6013,0.6152,0.6031,0.596,0.5714,0.5666,0.5503,0.5406,0.6297,0.6296,0.6296,0.6295,0,0.4788,0.4842,0.493,0.5027,0.5052,0.511,0.5163,0.5184,0.5272,0.531,0.534,0.5494,0.5615,0.5765,0.5972,0.6004,0.5917,0.6107,0.5762,0.5651,0.5329,0.5248,0.5167,0.5039,0.6023,0.6019,0.6016,0,0.4812,0.4849,0.4948,0.496,0.4996,0.505,0.5051,0.5151,0.5151,0.5265,0.5266,0.5398,0.5447,0.5638,0.5727,0.5858,0.5754,0.5657,0.5608,0.5345,0.5207,0.508,0.4973,0.5363,0.5355,0.5348,0.5342,0,0.4819,0.4837,0.4879,0.4901,0.4916,0.493,0.4941,0.4942,0.5018,0.5038,0.5083,0.5136,0.5288,0.5263,0.5382,0.5453,0.5319,0.5513,0.5376,0.4844,0.4585,0.4408,0.5203,0.5281,0.5287,0.5291,0.5295,0.5297,0.4777,0.4785,0.479,0.4805,0.4814,0.477,0.4701,0.47,0.4686,0.4658,0.4839,0.4834,0.4859,0.4981,0.4997,0.4791,0.4917,0.4673,0.4642,0.4575,0.4328,0.495,0.4847,0.485,0.4853,0.4856,0.4858,0,0.4664,0.4659,0.467,0.4646,0.4573,0.463,0.457,0.4445,0.4337,0.4422,0.4429,0.4372,0.4266,0.4288,0.4132,0.3969,0.3906,0.3838,0.3643,0.3622,0.4293,0.4135,0.3705,0.3705,0.3705,0.3705,0.3705,0.3706,0.4595,0.4534,0.4536,0.4392,0.4356,0.4171,0.4098,0.398,0.3979,0.3823,0.377,0.3817,0.3794,0.3607,0.3353,0.3282,0.3092,0.2906,0.2993,0.3463,0.354,0.3613,0.3447,0.2879,0.2878,0.2207,0.2201,0.2197]},{"header":{"parameterUnit":"m.s-1","parameterCategory":2,"la1":30.2991,"la2":30.254,"lo1":-89.0895,"lo2":-89.0444,"dy":0.0017,"dx":0.0017,"nx":28,"ny":28,"refTime":"2023-08-15T21:00:00:Z","depth":"0","parameterNumber":3,"parameterNumberName":"V-component_of_CURRENTS"},"data":[0,0,0,0,0,0,0,0,0,0,0,0,0,0,0,0,0,0,0,0,0,0,0,0,0,0,0,0,0,0,0,0,0,0,0,0,0,0,0,0,0,0,0,0,0,0,0,0,0,0,0,0,0,0,0,0,0,0,0.027,0.0269,0,0.015,0.0148,0.0147,0.0083,0.0083,0.0083,0.0082,0.0047,0.0046,0.0045,0,0,0,0,0,0,0,0,0,0,0,0,0,0.0456,0.0453,0.0271,0.0269,0.0267,0.015,0.0148,0.0147,0.0083,0.0083,0.0082,0.0082,0.0047,0.0046,0.0045,0,0,0,0,0,0,0,0,0,0,0,0,0,0.0363,0.0452,0.0271,0.0219,0.0212,0.015,0.0148,0.0147,0.0084,0.0083,0.0082,0.0082,0.0047,0.0046,0.0045,0.0053,0,0,0.0043,0.0042,0,0,0,0,0,0,0,0,0.0368,0.0356,0.0228,0.0222,0.0215,0.0128,0.02,0.0118,0.0084,0.0136,0.0082,0.0081,0.008,0.0076,0.0059,0.0051,0.005,0.0043,0.0042,0.0042,0.0042,0,0,0,0,0,0,0,0.0375,0.0361,0.0226,0.0226,0.0218,0.0204,0.0191,0.0184,0.0117,0.0132,0.0126,0.0107,0.0077,0.006,0.0058,0.0049,0.0043,0.0042,0.0041,0.0041,0.0145,0.0148,0,0,0,0,0,0,0.0382,0.0367,0.023,0.0222,0.0288,0.0201,0.0186,0.0159,0.0115,0.0106,0.0108,0.0104,0.0061,0.0059,0.0056,0.0168,0.0042,0.0041,0.0041,0.0142,0.0146,0.0149,0,0,0,0,0,0,0.0387,0.0371,0.0235,0.029,0.0271,0.0198,0.0169,0.0157,0.0143,0.0096,0.0089,0.0106,0.0061,0.0057,0.008,0.0163,0.0041,0.004,0.0138,0.0143,0.0148,0.0325,0,0,0,0,0,0,0.0392,0.0373,0.0371,0.029,0.0268,0.0225,0.0169,0.0155,0.013,0.0125,0.0092,0.0087,0.006,0.0082,0.0079,0.0159,0.0039,0.0134,0.014,0.0146,0.0315,0.0336,0.0353,0,0,0,0,0,0.0399,0.0406,0.0371,0.0355,0.0262,0.0227,0.0216,0.0164,0.0131,0.0145,0.0126,0.0088,0.0119,0.0083,0.008,0.0161,0.0131,0.0138,0.0146,0.0307,0.0332,0.0353,0,0,0,0,0,0,0.0497,0.0397,0.0358,0.0335,0.0294,0.0215,0.0221,0.0174,0.0164,0.0164,0.0116,0.0113,0.0175,0.0136,0.0096,0.021,0.0125,0.0132,0.0249,0.0272,0.029,0.0361,0.0039,0,0,0,0,0,0.0512,0.049,0.0399,0.0392,0.0369,0.0295,0.0275,0.0237,0.0205,0.0198,0.0175,0.017,0.0201,0.0207,0.0218,0.0263,0.0269,0.0317,0.0336,0.0353,0.0409,0.051,0.0544,0.0173,0.0173,0.0173,0,0,0.0554,0.0494,0.0485,0.0412,0.0372,0.0374,0.0284,0.0266,0.0293,0.02,0.0247,0.0236,0.0229,0.0298,0.0322,0.0274,0.045,0.0362,0.0376,0.0425,0.0521,0.0558,0.059,0.0178,0.0177,0.0177,0,0,0.0627,0.0567,0.0571,0.054,0.0479,0.0444,0.0442,0.0375,0.0373,0.0397,0.0367,0.0418,0.0408,0.0456,0.0472,0.0601,0.0553,0.0582,0.0731,0.0828,0.0861,0.0889,0.0895,0.0923,0.0585,0.0586,0.0586,0,0.0689,0.0658,0.0577,0.0576,0.0568,0.0484,0.0507,0.0505,0.0465,0.0497,0.0441,0.0527,0.0511,0.0649,0.0695,0.0655,0.0657,0.0643,0.0857,0.0886,0.0912,0.0912,0.094,0.0595,0.0594,0.0593,0.0592,0,0.0746,0.0736,0.0745,0.0715,0.0709,0.0716,0.0686,0.0707,0.0686,0.0686,0.0795,0.0788,0.0844,0.0851,0.0811,0.0998,0.0918,0.0875,0.0805,0.0961,0.0948,0.0975,0.0609,0.0605,0.0602,0.06,0,0,0.0846,0.0796,0.0801,0.081,0.0776,0.0781,0.0851,0.0894,0.0962,0.0971,0.1084,0.1159,0.1149,0.1171,0.1141,0.1227,0.1388,0.1135,0.1135,0.1151,0.1543,0.1376,0.1386,0.1375,0.1382,0.1387,0.1441,0,0.0919,0.0948,0.0905,0.0974,0.0987,0.0958,0.1032,0.1074,0.1103,0.1197,0.1252,0.1337,0.1272,0.13,0.1395,0.1407,0.1475,0.1374,0.1383,0.1383,0.1226,0.142,0.1311,0.1343,0.1466,0.1471,0.1474,0,0.097,0.0986,0.1045,0.1085,0.1092,0.1138,0.1236,0.1284,0.1401,0.1428,0.1541,0.1553,0.1715,0.1606,0.1764,0.1695,0.1651,0.1638,0.1638,0.1456,0.127,0.1216,0.1385,0.1137,0.1514,0.1511,0.1508,0,0.1046,0.1083,0.1137,0.1146,0.1185,0.1239,0.1275,0.1368,0.1446,0.1581,0.167,0.1812,0.1907,0.194,0.1909,0.185,0.2036,0.1935,0.1741,0.1722,0.1625,0.1587,0.1576,0.2051,0.2051,0.205,0.205,0,0.1112,0.116,0.118,0.121,0.1313,0.1309,0.1439,0.1488,0.1614,0.1761,0.1798,0.1962,0.2006,0.209,0.2015,0.1979,0.2122,0.1832,0.1773,0.167,0.1638,0.1406,0.1305,0.2052,0.2052,0.2051,0.2051,0,0.1171,0.1175,0.1241,0.1306,0.1336,0.1405,0.1517,0.1618,0.1714,0.1913,0.1971,0.214,0.2247,0.2219,0.2272,0.2116,0.1934,0.1995,0.1821,0.1741,0.1278,0.1191,0.1192,0.1124,0.1812,0.1809,0.1806,0,0.1201,0.1234,0.1308,0.1354,0.1384,0.1483,0.156,0.1657,0.1777,0.2036,0.2161,0.2317,0.2464,0.2439,0.2204,0.2035,0.1868,0.1741,0.1625,0.1299,0.1161,0.111,0.1052,0.1542,0.1537,0.1533,0.153,0,0.1262,0.1276,0.1325,0.1419,0.1499,0.1611,0.1737,0.1859,0.2012,0.2203,0.2478,0.2618,0.2563,0.2396,0.2084,0.1917,0.1545,0.1651,0.1425,0.107,0.0919,0.0804,0.1383,0.1497,0.1501,0.1503,0.1505,0.1506,0.1299,0.134,0.139,0.1485,0.1581,0.1735,0.1858,0.203,0.2256,0.2556,0.2675,0.2899,0.2534,0.2128,0.1855,0.1172,0.1308,0.0945,0.0899,0.0901,0.0762,0.1211,0.1176,0.1178,0.1179,0.118,0.1181,0,0.1331,0.1372,0.1457,0.157,0.1688,0.1744,0.1972,0.2123,0.2407,0.2683,0.2916,0.2815,0.2325,0.1817,0.0922,0.0489,0.0408,0.0275,0.0206,0.0212,0.0699,0.0602,0.0308,0.0308,0.0308,0.0308,0.0309,0.0309,0.1348,0.141,0.1453,0.1634,0.1732,0.1929,0.2073,0.2317,0.2551,0.2838,0.2948,0.3021,0.2488,0.1023,0.0016,-0.0166,-0.0347,-0.0425,-0.0447,-0.0162,-0.0103,-0.0047,-0.0163,-0.0613,-0.0614,-0.0928,-0.0932,-0.0935]}],[{"header":{"parameterUnit":"m.s-1","parameterCategory":2,"la1":30.2991,"la2":30.254,"lo1":-89.0895,"lo2":-89.0444,"dy":0.0017,"dx":0.0017,"nx":28,"ny":28,"refTime":"2023-08-15T21:00:00:Z","depth":"2","parameterNumber":2,"parameterNumberName":"U-component_of_CURRENTS"},"data":[0,0,0,0,0,0,0,0,0,0,0,0,0,0,0,0,0,0,0,0,0,0,0,0,0,0,0,0,0,0,0,0,0,0,0,0,0,0,0,0,0,0,0,0,0,0,0,0,0,0,0,0,0,0,0,0,0,0,0.2623,0.2624,0,0.2648,0.2647,0.2647,0.2644,0.2645,0.2645,0.2646,0.2801,0.2805,0.2808,0,0,0,0,0,0,0,0,0,0,0,0,0,0.2592,0.2591,0.2623,0.2625,0.2626,0.2648,0.2647,0.2647,0.2644,0.2645,0.2645,0.2646,0.28,0.2804,0.2809,0,0,0,0,0,0,0,0,0,0,0,0,0,0.26,0.2591,0.2623,0.2634,0.2636,0.2648,0.2647,0.2647,0.2644,0.2645,0.2646,0.2646,0.2799,0.2804,0.2809,0.2828,0,0,0.2826,0.2829,0,0,0,0,0,0,0,0,0.26,0.26,0.2631,0.2634,0.2636,0.2652,0.2694,0.2717,0.2644,0.2631,0.2646,0.2647,0.277,0.2777,0.2764,0.2835,0.2842,0.2827,0.283,0.2832,0.2834,0,0,0,0,0,0,0,0.2599,0.26,0.2623,0.2633,0.2636,0.2645,0.2646,0.2697,0.269,0.2632,0.2634,0.2652,0.277,0.2759,0.2769,0.2844,0.2827,0.2831,0.2835,0.2837,0.3112,0.3116,0,0,0,0,0,0,0.2614,0.2599,0.2623,0.2625,0.2631,0.2646,0.2646,0.2638,0.2687,0.2697,0.2652,0.2652,0.2749,0.2762,0.2775,0.298,0.2832,0.2838,0.2841,0.3108,0.3113,0.3117,0,0,0,0,0,0,0.2613,0.2615,0.2622,0.2622,0.2625,0.2646,0.2637,0.2639,0.2659,0.2702,0.2713,0.2676,0.275,0.2767,0.2826,0.2979,0.284,0.2845,0.3103,0.311,0.3115,0.3276,0,0,0,0,0,0,0.2611,0.2613,0.262,0.2622,0.2626,0.2638,0.2638,0.2639,0.2672,0.2674,0.2727,0.2739,0.2752,0.2818,0.2832,0.2984,0.2849,0.3098,0.3106,0.3113,0.3265,0.3286,0.3304,0,0,0,0,0,0.2609,0.2625,0.2619,0.2624,0.263,0.264,0.2641,0.2653,0.2673,0.2675,0.2709,0.2739,0.2879,0.2823,0.2839,0.2997,0.3095,0.3104,0.3113,0.3256,0.3282,0.3304,0,0,0,0,0,0,0.2625,0.2627,0.2621,0.2637,0.2641,0.2643,0.2679,0.2673,0.2697,0.2723,0.2748,0.2763,0.2907,0.2898,0.2836,0.3098,0.3011,0.3023,0.3115,0.314,0.3159,0.3119,0.2854,0,0,0,0,0,0.2629,0.2648,0.2634,0.2662,0.2671,0.2677,0.2692,0.269,0.2714,0.2725,0.2753,0.2826,0.2951,0.2992,0.3067,0.3164,0.3126,0.3289,0.3308,0.3325,0.3303,0.3358,0.338,0.3147,0.3147,0.3147,0,0,0.2655,0.2661,0.2674,0.2669,0.269,0.2718,0.2687,0.2724,0.2759,0.2745,0.2815,0.2898,0.2993,0.3131,0.3197,0.3141,0.3373,0.3336,0.335,0.3318,0.337,0.3392,0.3412,0.3153,0.3152,0.3151,0,0,0.2689,0.2716,0.2715,0.2724,0.2746,0.2777,0.2794,0.2793,0.2808,0.2855,0.2925,0.3045,0.3151,0.3262,0.3341,0.3499,0.3489,0.3579,0.3635,0.3692,0.3711,0.3727,0.3704,0.3717,0.3573,0.3573,0.3573,0,0.2671,0.2701,0.2723,0.2723,0.2751,0.2815,0.282,0.2871,0.2884,0.2887,0.2896,0.3122,0.322,0.3438,0.3529,0.3553,0.3542,0.3545,0.3716,0.3731,0.3744,0.3717,0.3729,0.3582,0.3581,0.358,0.3579,0,0.2686,0.2721,0.2749,0.2781,0.2816,0.2852,0.2913,0.2939,0.2989,0.3015,0.3171,0.3293,0.3405,0.3534,0.3596,0.3804,0.3752,0.3748,0.3648,0.3777,0.3741,0.375,0.3594,0.3591,0.3589,0.3586,0,0,0.2567,0.2704,0.2708,0.2724,0.2837,0.2844,0.2955,0.3007,0.3066,0.3144,0.321,0.3492,0.3541,0.3634,0.377,0.3863,0.4,0.3863,0.3862,0.3825,0.4075,0.3872,0.3861,0.4036,0.4039,0.4041,0.4009,0,0.2537,0.2554,0.2646,0.2717,0.2742,0.2834,0.293,0.3001,0.3096,0.3185,0.3352,0.3523,0.36,0.372,0.3824,0.4004,0.4033,0.4005,0.3967,0.3963,0.3757,0.3869,0.3636,0.3574,0.4017,0.4018,0.4019,0,0.2476,0.2514,0.2545,0.2658,0.2672,0.2738,0.2854,0.2942,0.3121,0.3187,0.3351,0.3498,0.3751,0.3769,0.4006,0.3991,0.402,0.4097,0.4097,0.3846,0.3778,0.352,0.3573,0.4033,0.4032,0.4031,0.403,0,0.2356,0.2428,0.2459,0.2492,0.2646,0.2656,0.275,0.2914,0.302,0.3223,0.3337,0.3564,0.3752,0.3848,0.4014,0.4036,0.4185,0.421,0.4005,0.3988,0.3743,0.3698,0.4255,0.4255,0.4255,0.4256,0.4256,0,0.2282,0.231,0.2395,0.242,0.2488,0.2571,0.2694,0.2798,0.3,0.3173,0.336,0.3552,0.3794,0.392,0.3994,0.4017,0.4137,0.4008,0.398,0.379,0.3752,0.4109,0.4092,0.4254,0.4255,0.4255,0.4255,0,0.2213,0.2263,0.2321,0.242,0.2461,0.2509,0.2717,0.28,0.2985,0.3221,0.3312,0.3596,0.3761,0.3868,0.4042,0.3993,0.4029,0.3955,0.3673,0.3611,0.3791,0.3784,0.3768,0.3761,0.3755,0.375,0.3746,0,0.218,0.2201,0.2328,0.2376,0.2444,0.254,0.2636,0.2812,0.2929,0.3257,0.3362,0.3581,0.3685,0.3777,0.3772,0.3722,0.3849,0.3423,0.3419,0.3774,0.3749,0.3752,0.3752,0.3166,0.3157,0.315,0.3145,0,0.2157,0.2219,0.2275,0.2372,0.2452,0.2579,0.27,0.2789,0.3008,0.3152,0.3323,0.3408,0.3516,0.3404,0.3318,0.3282,0.3427,0.3271,0.3754,0.3306,0.3199,0.3177,0.32,0.3082,0.3088,0.3093,0.3096,0.3099,0.214,0.2193,0.2255,0.2349,0.245,0.255,0.26,0.2685,0.2804,0.2917,0.3105,0.3098,0.3141,0.2913,0.2816,0.2776,0.3014,0.2906,0.2933,0.2966,0.2883,0.2769,0.2553,0.2556,0.2558,0.2561,0.2563,0,0.2093,0.2161,0.2221,0.2311,0.2367,0.2478,0.2594,0.2548,0.2561,0.2652,0.2667,0.2435,0.2357,0.2425,0.2278,0.2233,0.2274,0.2145,0.2217,0.228,0.2337,0.2226,0.1719,0.1716,0.1713,0.1711,0,0,0.2062,0.209,0.2124,0.2167,0.226,0.2296,0.234,0.2252,0.224,0.2072,0.2043,0.2166,0.2316,0.1963,0.1921,0.1808,0.2025,0.1734,0.2417,0.2565,0.2617,0.2785,0.2686,0,0,0,0,0]},{"header":{"parameterUnit":"m.s-1","parameterCategory":2,"la1":30.2991,"la2":30.254,"lo1":-89.0895,"lo2":-89.0444,"dy":0.0017,"dx":0.0017,"nx":28,"ny":28,"refTime":"2023-08-15T21:00:00:Z","depth":"2","parameterNumber":3,"parameterNumberName":"V-component_of_CURRENTS"},"data":[0,0,0,0,0,0,0,0,0,0,0,0,0,0,0,0,0,0,0,0,0,0,0,0,0,0,0,0,0,0,0,0,0,0,0,0,0,0,0,0,0,0,0,0,0,0,0,0,0,0,0,0,0,0,0,0,0,0,-0.0028,-0.0028,0,-0.0093,-0.0094,-0.0096,-0.0144,-0.0144,-0.0144,-0.0144,-0.0284,-0.0288,-0.0292,0,0,0,0,0,0,0,0,0,0,0,0,0,0.0017,0.0016,-0.0028,-0.0028,-0.0028,-0.0093,-0.0094,-0.0096,-0.0144,-0.0144,-0.0144,-0.0144,-0.0283,-0.0287,-0.0292,0,0,0,0,0,0,0,0,0,0,0,0,0,-0.0025,0.0016,-0.0028,-0.0056,-0.0059,-0.0093,-0.0095,-0.0096,-0.0144,-0.0144,-0.0144,-0.0144,-0.0281,-0.0287,-0.0293,-0.0329,0,0,-0.031,-0.0312,0,0,0,0,0,0,0,0,-0.0023,-0.0027,-0.0052,-0.0054,-0.0058,-0.0106,-0.013,-0.0176,-0.0144,-0.0117,-0.0144,-0.0143,-0.0228,-0.0238,-0.0257,-0.0335,-0.0341,-0.031,-0.0314,-0.0316,-0.0318,0,0,0,0,0,0,0,-0.002,-0.0025,-0.0059,-0.0052,-0.0056,-0.0079,-0.0085,-0.0139,-0.0177,-0.0119,-0.0122,-0.0121,-0.0231,-0.0251,-0.0261,-0.0343,-0.031,-0.0315,-0.0319,-0.0321,-0.0466,-0.0466,0,0,0,0,0,0,0.0,-0.0022,-0.0056,-0.006,-0.0034,-0.0079,-0.0087,-0.0095,-0.0175,-0.0185,-0.0121,-0.0123,-0.0241,-0.0254,-0.0266,-0.0312,-0.0316,-0.0321,-0.0325,-0.0465,-0.0466,-0.0466,0,0,0,0,0,0,0.0001,-0.0003,-0.0054,-0.0038,-0.0046,-0.0079,-0.0088,-0.0096,-0.011,-0.0175,-0.0188,-0.0126,-0.0242,-0.0258,-0.031,-0.0317,-0.0324,-0.0329,-0.0465,-0.0465,-0.0466,-0.0405,0,0,0,0,0,0,0.0003,-0.0002,-0.0006,-0.0037,-0.0046,-0.0067,-0.0088,-0.0097,-0.0108,-0.0111,-0.0184,-0.0197,-0.0243,-0.0302,-0.0316,-0.0325,-0.0334,-0.0464,-0.0465,-0.0466,-0.0406,-0.0403,-0.0401,0,0,0,0,0,0.0004,-0.0003,-0.0006,-0.001,-0.0048,-0.0066,-0.0073,-0.01,-0.0108,-0.0114,-0.0163,-0.0195,-0.0317,-0.0306,-0.0323,-0.0334,-0.0464,-0.0465,-0.0466,-0.0407,-0.0404,-0.0401,0,0,0,0,0,0,0.0003,-0.0009,-0.0013,-0.0027,-0.0038,-0.0072,-0.0081,-0.0093,-0.0137,-0.0143,-0.0203,-0.022,-0.0274,-0.031,-0.0297,-0.0379,-0.0395,-0.04,-0.0345,-0.0343,-0.034,-0.0338,-0.0338,0,0,0,0,0,0.0007,0.0004,-0.0012,-0.0021,-0.0024,-0.0049,-0.006,-0.0074,-0.011,-0.0128,-0.0176,-0.0234,-0.0293,-0.0319,-0.0379,-0.0419,-0.0443,-0.0437,-0.0434,-0.0431,-0.0442,-0.0474,-0.0474,-0.0469,-0.0469,-0.0469,0,0,0.0005,-0.0001,-0.0004,-0.0019,-0.0033,-0.0035,-0.0057,-0.0068,-0.0074,-0.0139,-0.0172,-0.0232,-0.0304,-0.0355,-0.0381,-0.0382,-0.0442,-0.0433,-0.043,-0.0442,-0.0475,-0.0475,-0.0475,-0.047,-0.047,-0.047,0,0,0.0005,-0.0004,-0.0003,-0.0006,-0.0013,-0.0026,-0.0021,-0.0049,-0.0067,-0.01,-0.0157,-0.0213,-0.0289,-0.0345,-0.0383,-0.04,-0.0433,-0.0418,-0.0396,-0.0425,-0.0426,-0.0427,-0.0436,-0.0438,-0.0407,-0.0407,-0.0407,0,-0.0004,0.0005,-0.0006,-0.0002,0.0001,-0.0014,-0.0008,-0.0029,-0.0071,-0.0088,-0.0101,-0.0232,-0.0287,-0.0362,-0.037,-0.0395,-0.0409,-0.0398,-0.042,-0.0421,-0.0423,-0.0433,-0.0436,-0.0404,-0.0404,-0.0405,-0.0405,0,0.0007,0.0013,0.0015,0.0021,0.0019,0.0023,0.0009,-0.0,-0.0018,-0.0046,-0.0118,-0.0202,-0.0277,-0.0303,-0.0344,-0.0394,-0.0399,-0.0416,-0.0421,-0.0419,-0.0431,-0.0435,-0.04,-0.0401,-0.0402,-0.0402,0,0,-0.0001,0.0015,0.0022,0.0048,0.0037,0.0051,0.0036,0.0023,0.0022,-0.004,-0.0067,-0.0179,-0.0228,-0.0276,-0.0341,-0.0372,-0.0389,-0.0394,-0.0396,-0.0391,-0.0438,-0.0401,-0.0402,-0.0404,-0.0405,-0.0406,-0.0432,0,0.0014,0.0039,0.0037,0.008,0.0101,0.009,0.0081,0.0065,0.0037,0.0007,-0.0088,-0.0148,-0.0216,-0.0254,-0.0301,-0.0372,-0.0402,-0.038,-0.0453,-0.0456,-0.0412,-0.0406,-0.038,-0.0399,-0.0437,-0.0437,-0.0438,0,0.0036,0.0062,0.0083,0.0135,0.0142,0.0156,0.0168,0.0152,0.0093,0.0062,-0.0021,-0.0091,-0.018,-0.0224,-0.0343,-0.0323,-0.0382,-0.043,-0.0432,-0.0427,-0.0427,-0.0414,-0.0406,-0.0445,-0.0445,-0.0444,-0.0444,0,0.0062,0.0111,0.0136,0.0149,0.0176,0.0193,0.0204,0.0166,0.015,0.0088,0.0083,-0.0046,-0.0088,-0.0198,-0.0284,-0.0321,-0.0379,-0.0439,-0.0466,-0.0463,-0.0473,-0.0469,-0.0521,-0.0521,-0.0521,-0.0521,-0.0521,0,0.0079,0.0114,0.0165,0.0182,0.0225,0.024,0.0248,0.0235,0.0203,0.022,0.0108,0.0123,-0.008,-0.0129,-0.0248,-0.0338,-0.0346,-0.0465,-0.0472,-0.0448,-0.0442,-0.0517,-0.0516,-0.0522,-0.0522,-0.0522,-0.0522,0,0.0069,0.0093,0.0141,0.0204,0.0223,0.025,0.0272,0.0292,0.0269,0.0293,0.0282,0.0233,0.0193,0.0025,-0.0119,-0.0259,-0.0367,-0.0393,-0.0337,-0.0338,-0.0456,-0.0452,-0.0481,-0.048,-0.048,-0.0479,-0.0478,0,0.0052,0.0073,0.0142,0.0178,0.0202,0.0246,0.0273,0.0284,0.0338,0.0408,0.0461,0.0425,0.0472,0.0273,0.001,-0.02,-0.0253,-0.0337,-0.0429,-0.0451,-0.0454,-0.0451,-0.0449,-0.0414,-0.0413,-0.0412,-0.0412,0,0.0032,0.0046,0.0095,0.0173,0.0233,0.0284,0.0372,0.0436,0.051,0.0622,0.0824,0.0875,0.0664,0.0476,0.0138,-0.0025,-0.0317,-0.0327,-0.0355,-0.0418,-0.0387,-0.039,-0.039,-0.0404,-0.0405,-0.0405,-0.0406,-0.0406,0.0024,0.0042,0.0121,0.0202,0.0265,0.0389,0.0492,0.0671,0.0854,0.107,0.1089,0.1179,0.0846,0.0441,0.018,-0.0171,-0.0216,-0.0375,-0.0378,-0.0383,-0.0359,-0.0328,-0.0328,-0.0329,-0.0329,-0.0329,-0.033,0,0.0042,0.0076,0.0156,0.0282,0.0394,0.041,0.0609,0.0789,0.1129,0.1253,0.143,0.1174,0.094,0.058,0.0078,-0.0224,-0.0283,-0.0315,-0.0333,-0.034,-0.0346,-0.0322,-0.0281,-0.0281,-0.0281,-0.0281,0,0,0.0062,0.0145,0.0203,0.0409,0.049,0.0683,0.0828,0.1124,0.1292,0.1508,0.152,0.1422,0.1009,0.0658,0.0259,0.0006,-0.01,-0.0054,-0.0071,-0.0053,-0.0054,-0.0367,-0.0335,0,0,0,0,0]}],[{"header":{"parameterUnit":"m.s-1","parameterCategory":2,"la1":30.2991,"la2":30.254,"lo1":-89.0895,"lo2":-89.0444,"dy":0.0017,"dx":0.0017,"nx":28,"ny":28,"refTime":"2023-08-15T21:00:00:Z","depth":"4","parameterNumber":2,"parameterNumberName":"U-component_of_CURRENTS"},"data":[0,0,0,0,0,0,0,0,0,0,0,0,0,0,0,0,0,0,0,0,0,0,0,0,0,0,0,0,0,0,0,0,0,0,0,0,0,0,0,0,0,0,0,0,0,0,0,0,0,0,0,0,0,0,0,0,0,0,0.1435,0.1436,0,0.1442,0.1442,0.1441,0.1468,0.1469,0.147,0.1471,0.1252,0.1245,0.1239,0,0,0,0,0,0,0,0,0,0,0,0,0,0.1361,0.1362,0.1435,0.1436,0.1437,0.1442,0.1442,0.1441,0.1468,0.1469,0.1471,0.1472,0.1254,0.1246,0.1238,0,0,0,0,0,0,0,0,0,0,0,0,0,0.1378,0.1363,0.1435,0.1454,0.1457,0.1442,0.1442,0.1441,0.1468,0.1469,0.1471,0.1473,0.1257,0.1247,0.1237,0.114,0,0,0.1205,0.1201,0,0,0,0,0,0,0,0,0.1377,0.138,0.1451,0.1453,0.1456,0.1461,0.1336,0.1331,0.1467,0.1458,0.1471,0.1473,0.1303,0.1289,0.1282,0.113,0.112,0.1204,0.1198,0.1194,0.1191,0,0,0,0,0,0,0,0.1376,0.138,0.1433,0.1452,0.1454,0.1434,0.1438,0.1335,0.1363,0.1459,0.1462,0.1471,0.1302,0.1292,0.1277,0.1117,0.1205,0.1195,0.1189,0.1185,0.1091,0.1095,0,0,0,0,0,0,0.1389,0.1379,0.1433,0.1433,0.1426,0.1435,0.1439,0.1453,0.1369,0.1361,0.1469,0.1472,0.1309,0.1289,0.1269,0.1294,0.1194,0.1184,0.1178,0.1088,0.1092,0.1096,0,0,0,0,0,0,0.1387,0.1393,0.1432,0.141,0.1414,0.1435,0.145,0.1452,0.1475,0.138,0.1368,0.1494,0.131,0.1283,0.1238,0.128,0.1179,0.117,0.1083,0.1089,0.1094,0.125,0,0,0,0,0,0,0.1385,0.1393,0.1412,0.1411,0.1416,0.1442,0.1449,0.1452,0.1478,0.1483,0.1395,0.1376,0.1309,0.1255,0.1228,0.1264,0.1162,0.1079,0.1086,0.1092,0.1241,0.1261,0.1278,0,0,0,0,0,0.1382,0.1389,0.1413,0.142,0.1441,0.1443,0.1443,0.1459,0.1478,0.1485,0.146,0.138,0.1282,0.1248,0.1216,0.125,0.1075,0.1084,0.1092,0.1232,0.1257,0.1277,0,0,0,0,0,0,0.1348,0.1393,0.1419,0.1437,0.1455,0.145,0.1463,0.1474,0.1461,0.1476,0.1391,0.1369,0.1339,0.1285,0.1251,0.1256,0.1178,0.118,0.1296,0.1317,0.1336,0.1279,0.1153,0,0,0,0,0,0.1357,0.1385,0.1415,0.1428,0.145,0.1465,0.1473,0.149,0.1478,0.1478,0.1427,0.1389,0.1343,0.1326,0.1256,0.124,0.1201,0.1259,0.1278,0.1293,0.1234,0.1275,0.1291,0.1123,0.1123,0.1123,0,0,0.1344,0.1374,0.1388,0.1426,0.1447,0.1456,0.1473,0.1501,0.1505,0.1445,0.1438,0.1415,0.1347,0.1342,0.133,0.1309,0.1336,0.1304,0.1317,0.1247,0.1285,0.1301,0.1315,0.1129,0.1128,0.1127,0,0,0.1319,0.1371,0.1389,0.1408,0.1458,0.1469,0.1487,0.1512,0.1531,0.1519,0.1503,0.1513,0.1431,0.1421,0.1396,0.1469,0.141,0.1488,0.1547,0.1593,0.1605,0.1616,0.1641,0.1652,0.1527,0.1527,0.1528,0,0.1304,0.1331,0.1387,0.1404,0.1416,0.1479,0.1483,0.1503,0.1509,0.152,0.1532,0.1497,0.1453,0.1456,0.1515,0.1499,0.1522,0.1466,0.1614,0.1623,0.1631,0.1653,0.1663,0.1536,0.1535,0.1534,0.1533,0,0.1281,0.1314,0.1326,0.1374,0.1394,0.1411,0.1456,0.1492,0.153,0.1544,0.1566,0.1555,0.1546,0.1575,0.1554,0.162,0.1619,0.1612,0.1549,0.1656,0.1675,0.1683,0.1548,0.1545,0.1543,0.154,0,0,0.121,0.1295,0.1299,0.1329,0.1384,0.1398,0.1429,0.1467,0.1505,0.1541,0.1574,0.157,0.162,0.1597,0.1628,0.1681,0.1795,0.1697,0.1695,0.1704,0.1908,0.1785,0.178,0.1848,0.1849,0.185,0.1917,0,0.1176,0.1201,0.1247,0.127,0.1292,0.136,0.1375,0.1424,0.1485,0.154,0.1582,0.1618,0.162,0.1679,0.1728,0.1758,0.1814,0.1775,0.1811,0.181,0.1674,0.1783,0.1854,0.1922,0.1924,0.1925,0.1926,0,0.1124,0.1162,0.1172,0.1245,0.1262,0.1282,0.1358,0.1388,0.148,0.1534,0.1607,0.1654,0.1732,0.174,0.1822,0.1818,0.1861,0.1883,0.1887,0.1693,0.1698,0.178,0.1938,0.1937,0.1936,0.1935,0.1935,0,0.1034,0.1103,0.1114,0.1131,0.1215,0.1247,0.1302,0.1387,0.1441,0.1569,0.1633,0.1712,0.1785,0.1838,0.1897,0.1897,0.1974,0.1981,0.1892,0.1885,0.1902,0.1889,0.2022,0.2022,0.2022,0.2022,0.2022,0,0.0951,0.0971,0.109,0.1093,0.1132,0.1214,0.1275,0.1345,0.1468,0.1536,0.1651,0.172,0.1823,0.1889,0.1922,0.1919,0.2004,0.1876,0.1889,0.1978,0.1972,0.1911,0.1897,0.2024,0.2024,0.2023,0.2023,0,0.083,0.09,0.0935,0.1045,0.1086,0.1119,0.1266,0.1317,0.1451,0.1555,0.1612,0.1758,0.1851,0.1914,0.2003,0.1941,0.1957,0.1938,0.2021,0.2041,0.1833,0.1827,0.1838,0.1834,0.1831,0.1828,0.1826,0,0.0766,0.0768,0.0885,0.0918,0.0975,0.1064,0.1117,0.128,0.1349,0.1561,0.1591,0.175,0.183,0.1843,0.1914,0.1945,0.1926,0.1902,0.1847,0.18,0.1812,0.1811,0.181,0.1821,0.182,0.1819,0.1818,0,0.0653,0.0699,0.074,0.0806,0.0876,0.0942,0.1052,0.1106,0.1296,0.1437,0.1562,0.1641,0.1727,0.1785,0.1818,0.1835,0.1893,0.1867,0.1873,0.1821,0.1779,0.1794,0.1797,0.1806,0.1808,0.1809,0.181,0,0.0581,0.0581,0.0645,0.0699,0.0761,0.0802,0.0888,0.1007,0.1111,0.1369,0.1408,0.1581,0.1724,0.173,0.1762,0.1764,0.1738,0.1658,0.1675,0.1689,0.1604,0.1525,0.1474,0,0,0,0,0,0.0508,0.0508,0.0541,0.0591,0.0639,0.0686,0.0825,0.0927,0.1132,0.1186,0.1309,0.1405,0.1499,0.1575,0.1548,0.166,0.171,0.1614,0.1618,0.1742,0.1756,0.1667,0,0,0,0,0,0,0.0465,0.0484,0.0507,0.0488,0.0496,0.055,0.0637,0.0784,0.0836,0.1055,0.112,0.1279,0.1386,0.1496,0.1507,0.1527,0.1491,0.1722,0.1717,0.1735,0.1747,0.1758,0.1671,0,0,0,0,0]},{"header":{"parameterUnit":"m.s-1","parameterCategory":2,"la1":30.2991,"la2":30.254,"lo1":-89.0895,"lo2":-89.0444,"dy":0.0017,"dx":0.0017,"nx":28,"ny":28,"refTime":"2023-08-15T21:00:00:Z","depth":"4","parameterNumber":3,"parameterNumberName":"V-component_of_CURRENTS"},"data":[0,0,0,0,0,0,0,0,0,0,0,0,0,0,0,0,0,0,0,0,0,0,0,0,0,0,0,0,0,0,0,0,0,0,0,0,0,0,0,0,0,0,0,0,0,0,0,0,0,0,0,0,0,0,0,0,0,0,-0.0018,-0.0018,0,-0.0036,-0.0037,-0.0037,-0.0058,-0.0058,-0.0059,-0.0059,0.0035,0.0037,0.004,0,0,0,0,0,0,0,0,0,0,0,0,0,-0.0016,-0.0016,-0.0018,-0.0018,-0.0018,-0.0036,-0.0037,-0.0037,-0.0058,-0.0058,-0.0059,-0.0059,0.0034,0.0037,0.004,0,0,0,0,0,0,0,0,0,0,0,0,0,-0.0025,-0.0016,-0.0018,-0.003,-0.0031,-0.0036,-0.0037,-0.0037,-0.0058,-0.0058,-0.0059,-0.0059,0.0033,0.0037,0.0041,0.0072,0,0,0.0053,0.0055,0,0,0,0,0,0,0,0,-0.0025,-0.0025,-0.0028,-0.0029,-0.0031,-0.0044,-0.0002,0.0005,-0.0058,-0.0049,-0.0059,-0.0059,0.002,0.0025,0.0019,0.0076,0.008,0.0053,0.0056,0.0057,0.0058,0,0,0,0,0,0,0,-0.0024,-0.0025,-0.0027,-0.0028,-0.003,-0.004,-0.0041,-0.0001,-0.0012,-0.005,-0.0051,-0.0051,0.002,0.0015,0.0021,0.0081,0.0053,0.0057,0.0059,0.0061,0.0128,0.0127,0,0,0,0,0,0,-0.0018,-0.0024,-0.0026,-0.0027,-0.0027,-0.0039,-0.0041,-0.0041,-0.0015,-0.0011,-0.0051,-0.0052,0.0008,0.0016,0.0024,0.0058,0.0057,0.0061,0.0063,0.0128,0.0127,0.0127,0,0,0,0,0,0,-0.0018,-0.0018,-0.0025,-0.0025,-0.0027,-0.0039,-0.0038,-0.0041,-0.0045,-0.0016,-0.0011,-0.0053,0.0008,0.0019,0.0043,0.0062,0.0063,0.0067,0.0129,0.0128,0.0127,0.013,0,0,0,0,0,0,-0.0018,-0.0018,-0.0021,-0.0025,-0.0026,-0.0028,-0.0038,-0.0041,-0.0044,-0.0046,-0.0015,-0.0008,0.0009,0.0037,0.0047,0.0068,0.007,0.013,0.0129,0.0127,0.013,0.0129,0.0128,0,0,0,0,0,-0.0018,-0.0022,-0.0021,-0.0021,-0.0028,-0.0028,-0.003,-0.0041,-0.0044,-0.0046,-0.0037,-0.0009,0.0037,0.004,0.0052,0.0074,0.013,0.0129,0.0127,0.0131,0.0129,0.0128,0,0,0,0,0,0,-0.0029,-0.0024,-0.0023,-0.0027,-0.0026,-0.0031,-0.0038,-0.0038,-0.0034,-0.0035,-0.001,-0.0002,0.0023,0.0042,0.0045,0.0084,0.0086,0.0087,0.0085,0.0084,0.0082,0.0097,0.0073,0,0,0,0,0,-0.0029,-0.0029,-0.0024,-0.0029,-0.0027,-0.003,-0.0033,-0.0035,-0.003,-0.0031,-0.0011,0.0007,0.0027,0.0049,0.0065,0.01,0.0078,0.0117,0.0115,0.0115,0.0131,0.006,0.0054,0.0122,0.0122,0.0122,0,0,-0.0036,-0.0033,-0.0034,-0.0031,-0.0034,-0.0019,-0.0033,-0.0035,-0.0018,-0.0016,0.0005,0.0006,0.0031,0.0054,0.0068,0.0076,0.0085,0.0113,0.0112,0.013,0.0058,0.0051,0.0045,0.0121,0.0121,0.0121,0,0,-0.0035,-0.0045,-0.0035,-0.0029,-0.0024,-0.0021,-0.0018,-0.0017,-0.0015,0.0001,0.0002,0.0003,0.0045,0.0055,0.007,0.0073,0.0072,0.0085,0.0109,0.0038,0.0032,0.0027,-0.0001,-0.001,0.0094,0.0094,0.0094,0,-0.0037,-0.0017,-0.0034,-0.0017,0.0002,-0.0016,0.0016,0.0009,0.0017,0.0033,0.0008,0.0036,0.0043,0.0083,0.0073,0.0075,0.0044,0.0117,0.0037,0.003,0.0025,-0.0003,-0.0012,0.0094,0.0094,0.0094,0.0094,0,-0.0014,0.0001,0.0005,0.0031,0.0039,0.0059,0.0063,0.0069,0.0065,0.0065,0.0082,0.0063,0.0087,0.0078,0.0081,0.0066,0.0061,0.0034,0.0042,0.0018,-0.001,-0.0019,0.0094,0.0094,0.0094,0.0094,0,0,0.0013,0.0026,0.0034,0.0067,0.0078,0.0098,0.0116,0.0148,0.0176,0.0144,0.0173,0.0161,0.014,0.0153,0.0143,0.0083,0.0004,0.0047,0.0043,0.0024,-0.0127,-0.0117,-0.0126,-0.0048,-0.005,-0.0052,-0.0126,0,0.0057,0.0111,0.0103,0.0164,0.0204,0.0197,0.0225,0.0239,0.0234,0.0243,0.0205,0.0218,0.0174,0.0182,0.0111,0.0035,-0.0023,0.0029,-0.0103,-0.0106,-0.0092,-0.0137,-0.0058,-0.0133,-0.0136,-0.0137,-0.0138,0,0.0108,0.0146,0.0218,0.0268,0.0284,0.0312,0.0373,0.0391,0.0383,0.0376,0.0356,0.0318,0.0267,0.0201,0.0055,0.0087,-0.0012,-0.0093,-0.0099,-0.0092,-0.0114,-0.0107,-0.0156,-0.0154,-0.0153,-0.0152,-0.0151,0,0.0179,0.0232,0.0304,0.0323,0.0366,0.0405,0.0429,0.0442,0.0473,0.046,0.0459,0.0389,0.0347,0.0205,0.0043,0.0041,-0.0148,-0.0172,-0.0248,-0.0247,-0.0233,-0.0226,-0.0297,-0.0296,-0.0296,-0.0296,-0.0296,0,0.0245,0.03,0.0348,0.0391,0.0481,0.0483,0.0566,0.057,0.0583,0.0609,0.0535,0.0517,0.033,0.0205,0.0058,-0.0118,-0.0139,-0.0244,-0.0276,-0.0228,-0.022,-0.0239,-0.0231,-0.0299,-0.0298,-0.0298,-0.0297,0,0.0299,0.0328,0.0417,0.0489,0.0516,0.0582,0.0649,0.0699,0.0694,0.0718,0.0713,0.0598,0.0429,0.0251,0.0013,-0.0091,-0.0261,-0.032,-0.0226,-0.0252,-0.0309,-0.03,-0.0399,-0.0399,-0.0399,-0.04,-0.04,0,0.0326,0.0383,0.0492,0.0548,0.0583,0.0676,0.0735,0.0761,0.0795,0.076,0.076,0.0618,0.0518,0.0213,0.0011,-0.0242,-0.0288,-0.0352,-0.0357,-0.0303,-0.0325,-0.0315,-0.0306,-0.0401,-0.0401,-0.0401,-0.0401,0,0.0387,0.0431,0.0498,0.0613,0.0695,0.079,0.0857,0.0888,0.0898,0.0894,0.0798,0.0645,0.0452,0.0212,0.0013,-0.0175,-0.0296,-0.0357,-0.0358,-0.0363,-0.0307,-0.0326,-0.0317,-0.0402,-0.0402,-0.0402,-0.0402,0,0.0425,0.0482,0.0568,0.0665,0.0765,0.0852,0.0899,0.0916,0.0944,0.0886,0.0845,0.0643,0.0518,0.0245,0.0058,-0.012,-0.0166,-0.0211,-0.022,-0.0221,-0.0154,-0.0056,-0.0104,0,0,0,0,0,0.0456,0.0514,0.0609,0.071,0.0805,0.086,0.0949,0.098,0.0979,0.0923,0.0887,0.0707,0.0421,0.0289,0.0112,0.0047,-0.0195,-0.0164,-0.025,-0.041,-0.0409,-0.0361,0,0,0,0,0,0,0.0479,0.0562,0.0608,0.0718,0.0783,0.089,0.0949,0.0961,0.0923,0.089,0.0735,0.0663,0.038,0.0508,0.0101,0.0048,-0.0027,-0.03,-0.0303,-0.0411,-0.041,-0.0408,-0.0359,0,0,0,0,0]}]]